Location: Florence
(33.9745°N, 118.2481°W)
Time: 19:06:39
(UTC+00:00)

SJ-12 - Pass Details

Date: 23 March 2023
Orbit: 560 x 571 km, 97.7° (Epoch: 06 June)

Event Time Altitude Azimuth Distance (km) Brightness Sun altitude
Rises 13:04:05 0° 9° (N) 2,753 7.6 -10.9°
Reaches altitude 10° 13:06:14 10° 7° (N) 1,853 6.7 -10.4°
Maximum altitude 13:10:13 71° 284° (WNW) 596 3.8 -9.6°
Drops below altitude 10° 13:14:11 10° 200° (SSW) 1,842 6.2 -8.8°
Sets 13:16:19 0° 198° (SSW) 2,734 7.1 -8.4°
